Regional Weather Roundup
Issued by NWS

Home | Current Version | Previous Version | Graphics & Text | Print | Product List | Glossary On
Versions: 1 2 3 4 5 6 7 8 9 10 11 12 13 14 15 16 17 18 19 20 21 22 23 24 25 26 27 28 29 30 31 32 33 34 35 36 37 38 39 40 41 42 43 44 45 46 47 48 49 50
000
ASUS43 KFSD 281502
RWRSD

WEATHER ROUNDUP FOR SOUTH DAKOTA
NATIONAL WEATHER SERVICE SIOUX FALLS SD
900 AM CST SAT FEB 28 2015

NOTE: "FAIR" INDICATES FEW OR NO CLOUDS BELOW 12,000 FEET WITH NO
SIGNIFICANT WEATHER AND/OR OBSTRUCTIONS TO VISIBILITY.


SDZ001>005-009-010-012>017-281600-
NORTHWEST AND NORTH CENTRAL SOUTH DAKOTA

CITY           SKY/WX    TMP DP  RH WIND       PRES   REMARKS
BUFFALO          N/A     10   4  76 NW22      30.01R WCI -10
FAITH            N/A     14   5  67 W24       30.08R WCI  -5
MOBRIDGE       MOSUNNY   13   5  70 S9        30.09R WCI   1
$$

SDZ012>016-024>037-041>051-057-063-072>074-281600-
SOUTHWEST AND SOUTH CENTRAL SOUTH DAKOTA

CITY           SKY/WX    TMP DP  RH WIND       PRES   REMARKS
RAPID CTY ARPT SUNNY     16   5  62 N21       30.08R WCI  -1
PIERRE         SUNNY     14   6  70 SE9       30.16R WCI   2
CUSTER         CLOUDY    15   8  73 CALM      29.92R
ELLSWORTH AFB  SUNNY     15   4  62 N18       30.08R WCI  -2
PHILIP         SUNNY     17   9  70 W9        30.13R WCI   6
PINE RIDGE     SUNNY     13   5  70 SW8       30.10R WCI   2
WINNER         FAIR      17   4  56 S23G29    30.19R WCI  -1
$$

SDZ004>011-016>023-039-040-281600-
NORTHEAST SOUTH DAKOTA

CITY           SKY/WX    TMP DP  RH WIND       PRES   REMARKS
ABERDEEN       SUNNY     10   1  67 S16       30.23S WCI  -7
WATERTOWN      SUNNY      7   0  73 S13       30.25S WCI  -9
SISSETON         N/A     12   3  67 SW17      30.27R WCI  -5
$$

SDZ017-020-022-023-036>040-048>070-281600-
SOUTHEAST SOUTH DAKOTA

CITY           SKY/WX    TMP DP  RH WIND       PRES   REMARKS
SIOUX FALLS    MOSUNNY    9   1  70 S14       30.37R WCI  -7
HURON          SUNNY      9   2  73 S14       30.28R WCI  -7
MITCHELL       SUNNY     13   5  70 S13       30.32R WCI  -2
YANKTON        SUNNY     14   7  73 S12       30.40R WCI   0
$$

ABBREVIATIONS USED IN REMARKS
   TC - TEMPERATURE IN CELSIUS
  WCI - WIND CHILL INDEX
   HX - HEAT INDEX
  VSB - VISIBILITY



USA.gov is the U.S. government's official web portal to all federal, state and local government web resources and services.